一网星座-0712星 (ONEWEB-0712)

导读

ONEWEB-0712是英国OneWeb星座的低轨道通信卫星,于2022年12月8日发射升空。OneWeb是英国背景的低轨卫星通信项目,主打全球宽带互联网接入服务,相比星链更侧重政府及企业客户,轨道高度约1200千米,轨道倾角86.4°,可更好覆盖高纬度地区。该卫星是OneWeb构建全球卫星通信网络的组成部分,助力项目完成星座组网,为偏远地区、空中及海洋场景提供宽带连接服务。

Basic Information
目录编号:
54680
目录名称:
ONEWEB-0712
国际标识:
2022-166AQ
轨道中心:
EARTH
卫星名称:
一网星座-0712星
卫星全名:
一网星座-0712星 (ONEWEB-0712)
卫星状态:
在轨 (已飞行1374 天)
发射日期:
2022-12-08 UTC
国别 :
英国 (GB)
星等 :
--
This satellite is enrolled in the Space Conjunction Data Service (SCDS) and the current flight risk assessment level is: No High Risk
Orbit Information
数据来源 国际轨道数据 AOE轨道数据
星历时间 2026-09-11T17:25:18+0800
20小时前
查看轨道信息
2026-09-06T07:00:00+0800
6天前
查看轨道信息
半长轴 7575.899km 7575.889km
偏心率 0.000252 0.0002666
轨道倾角 87.914° 87.912°
近地点辐角 75.455° 74.025°
升交点赤经 211.657° 212.734°
平近点角 284.686° 104.013°
近地点 1195.852km 1195.732km
远地点 1199.672km 1199.772km
周期 109.373分钟 109.373分钟
每日圈数 13.16593 13.165956
Detailed Information
平衡模式:
三轴稳定
覆盖范围:
全球
运营商:
一网卫星公司
运营商所在国:
英国
制造商(研发单位):
一网卫星公司
制造商所在国:
英国
使用方式:
暂无
Satellite Introduction
OneWeb卫星网络由648颗重约125公斤的微型卫星组成,运行在1200公里的轨道上。 每颗卫星都能够提供至少每秒8千兆位的吞吐量,以使用其高吞吐量的Ku频段有效载荷为家庭和移动平台提供互联网接入。该卫星仍在工作。
2D Orbit Map
3D Orbit Map
Orbit Altitude Analysis Chart
Orbit Inclination Analysis Chart
Orbit Comprehensive Analysis Chart
View Comprehensive Chart
Conjunction Data List
Event ID Objects TCA Miss Dist (km) Collision Risk Probability Collision Risk Index (CRI) Action
CDM_260911-050903-192405-468028
2026-09-11T
05:09:53+0000
2.541 km
极远距离
1.672008E-6 低风险 0.39
Miss Distance Evolution Trend with All Objects
Collision Probability Evolution Trend with All Objects